Location: Eastchurch
(51.4000°N, 0.8667°E)
Time: 23:06:57
(UTC+00:00)

Cosmos 1862 Rocket - Pass Details

Date: 19 January 2026
Orbit: 596 x 627 km, 82.5° (Epoch: 7 February)

Event Time Altitude Azimuth Distance (km) Brightness Sun altitude
Rises 18:48:20 0° 187° (S) 2,897 7.2 -22.0°
Reaches altitude 10° 18:50:33 10° 187° (S) 1,992 6.3 -22.3°
Maximum altitude 18:54:58 85° 101° (E) 631 3.4 -23.0°
Enters shadow 18:55:45 60° 18° (NNE) 714 3.6 -23.1°
